COSMOS 252 DEB, 3555

Orbit data source: Space-Track

COSMOS 252 DEB, 3555 is space debris in LEO originally from a launch on Fri, 01 Nov 1968 UTC launched from the Tyuratam Missile And Space Complex (TTMTR). Debris objects in space refer to the collection of defunct objects orbiting the Earth. Examples of debris include non-operational satellites, rocket bodies, and fragments generated from explosions, collisions, or faulty payload assembly.

Loading next visibility...
Identifier
3555, 1968-097H
Orbit
LEO
Country
Flag of CISCIS
Related business
Manufacturer
Unknown
Mission
Spacecraft
Bus & Motor
Unknown
Mass
Unknown
Launch date (UTC)
1968-11-01 (58 years ago)
Launch vehicle
Unknown
Launch site
Tyuratam Missile And Space Complex (TTMTR)
Object type
Payload
Rocket body
Debris
Shape & HBR
Unknown shape, 0.6 m
Radar Cross Section
Medium (>0.1 m² and <1 m²)

Expand to show TLE details & history
Last TLE update: 1 week ago

TLE from 1 week ago
0 COSMOS 252 DEB
1 03555U 68097H   26154.94398100  .00001256  00000-0  49334-3 0  9990
2 03555  62.3193 305.9749 0901419 171.2970 190.4930 13.08488181735072
Epoch: 2026-06-03T22:39Z
TLE epoch observation values (Epoch: 2026-06-03T22:39:19.958Z)
Latitude
-0.00001°
Longitude
73.7464°
Altitude
1,906.79 km
Speed
6.623 km/s
True Right ascension
20h 23m 53s
True Declination
0° 00' 00"
Sunlit
Object was in daylight at epoch
Visualization orbit readout
Latitude
Unknown
Longitude
Unknown
Altitude
Unknown
Speed
Unknown
Apparent Right ascension
Unknown
Apparent Declination
Unknown
Sunlit
N/A
Visualization observer readout
Local Sidereal Time
02:51:53
Azimuth
Unknown
Elevation
Unknown
Doppler factor
Unknown
Orbital elements
Apogee altitude
1,913.615 km
Perigee altitude
542.354 km
Semi-major axis
7,606.121 km
Eccentricity
0.09014
Inclination
62.3193°
RAAN
305.9749°
Arg. of periapsis
171.297°
True anomaly
188.80034°
Mean anomaly
190.493°
Eccentric anomaly
189.6291°
Mean motion
3.27189 °/min
Orbital period
110.03 mins
BSTAR
0.00049334
Loading maneuver chart data...
Computing Atmospheric mass density...

Documentation

Showing up to 5 results
|